Theta_e
331 330 330 332 341 337 337 340 340 346 351 351 350 361 365 361 355 357 356 354 353 352 352 351 351 352 351 349 350 349 352 352 352 353 353 355 355 356 356 357 355 355 360 360
335 329 334 341 341 344 338 342 344 347 348 347 357 364 358 352 351 357 356 354 352 351 349 350 351 351 352 353 353 355 355 355 356 357 358 358 355 347 342 343 346 347 340 350
337 330 335 340 341 344 347 342 344 346 347 351 365 355 351 347 347 349 349 350 351 351 351 352 352 351 350 349 349 354 355 353 354 352 351 344 342 341 342 346 345 346 345 340
334 335 337 336 339 340 344 342 345 345 348 355 357 353 351 346 346 346 347 346 347 346 347 347 346 343 344 346 349 351 351 348 343 346 346 345 340 340 341 343 344 344 351 347
335 334 333 340 342 346 347 345 349 347 349 360 357 351 353 347 344 345 346 344 343 343 342 341 340 341 342 341 343 350 351 350 349 347 345 346 349 345 339 339 340 342 343 346
333 333 335 339 339 341 347 346 349 350 354 359 356 349 355 350 346 344 344 344 345 344 343 343 343 342 341 343 342 341 341 342 343 343 347 348 347 344 342 341 341 342 342 340
334 334 332 335 338 338 352 346 348 351 355 358 353 349 352 351 349 345 344 343 343 344 345 345 343 343 344 343 342 341 339 339 340 342 342 343 341 346 343 342 339 340 341 341
337 339 336 339 343 345 343 343 347 352 355 356 352 351 353 352 350 347 346 345 342 343 344 344 344 343 345 344 340 340 341 343 347 347 346 346 345 345 343 342 345 346 346 345
345 343 341 339 341 340 341 347 346 353 352 353 350 352 352 351 350 349 348 347 344 344 345 345 344 343 346 344 337 340 343 345 343 343 346 348 349 349 348 346 345 345 345 346
345 343 342 340 340 340 341 344 343 345 349 349 346 345 347 347 347 347 347 346 344 344 345 345 342 342 342 341 341 341 346 347 346 347 339 338 341 341 342 345 345 346 346 345
342 341 340 339 340 341 338 338 339 340 342 346 344 342 343 345 343 344 344 343 344 346 347 347 343 342 342 342 342 344 348 346 345 339 342 340 338 338 338 339 340 341 342 341
341 345 344 343 339 336 338 338 338 338 337 338 340 342 341 341 341 343 344 345 346 348 348 348 346 347 345 343 343 348 347 343 342 340 339 341 337 338 336 337 338 339 338 339
338 334 336 335 334 334 337 336 335 337 337 338 339 340 341 343 346 345 347 347 350 349 351 351 348 348 349 347 346 350 348 346 343 338 339 338 339 340 342 338 338 338 338 338
330 334 336 336 336 335 334 334 336 338 338 339 340 342 343 345 344 347 348 349 348 348 349 350 350 351 347 345 348 349 348 345 343 338 337 338 338 338 339 341 340 336 334 336
331 331 332 332 333 336 334 335 339 340 340 339 340 342 344 345 346 346 349 349 348 348 347 345 346 345 341 342 343 345 345 345 343 340 339 339 339 338 337 338 339 341 335 333
331 333 332 331 332 336 335 336 339 341 341 340 340 343 345 345 345 347 347 346 346 346 348 346 344 341 339 335 331 342 344 341 340 342 342 341 340 340 340 339 339 338 337 333
333 337 334 334 334 335 335 337 339 340 340 340 340 343 344 343 344 343 343 343 344 346 347 343 344 340 341 341 332 339 341 339 338 342 343 341 341 340 340 340 340 340 337 335
335 334 332 333 333 333 335 335 336 338 340 340 341 343 343 343 344 343 343 342 345 346 345 342 340 339 336 337 341 341 342 342 343 344 341 341 338 337 336 337 341 341 336 333
333 337 335 332 332 332 332 333 334 336 338 340 341 342 344 343 344 342 339 342 344 344 344 341 337 327 327 328 331 335 340 342 342 342 340 336 338 339 337 334 336 337 337 338
332 333 335 335 333 333 332 331 332 335 339 339 340 342 343 342 341 340 337 337 338 341 340 342 330 328 327 328 327 330 334 342 342 340 338 338 338 339 339 339 339 340 338 339
328 330 332 333 335 334 332 332 332 334 336 339 341 342 343 341 339 338 337 336 335 336 336 339 333 329 326 327 328 331 338 343 342 341 339 339 341 339 339 340 339 339 340 341
323 327 328 330 332 335 334 333 333 335 337 338 339 340 341 339 337 336 336 336 335 336 336 339 332 329 327 326 329 330 334 339 341 342 341 339 340 340 340 341 340 337 337 339
320 323 326 328 330 331 332 334 334 335 337 337 338 339 339 338 336 335 335 333 334 337 336 336 331 330 328 326 328 329 330 332 335 337 340 341 340 340 340 340 339 338 337 337
319 320 323 326 328 331 335 334 333 334 337 337 337 337 337 336 335 334 333 329 334 336 337 336 333 331 328 328 326 326 327 329 330 331 333 333 340 340 339 339 339 338 336 335
318 319 322 324 326 329 330 333 333 333 335 336 336 337 336 335 334 332 330 329 329 331 336 335 329 326 326 328 328 327 325 326 325 327 330 331 332 335 336 335 335 335 338 336
318 319 320 322 324 326 329 332 333 333 333 335 335 334 334 333 333 330 329 330 329 328 332 333 326 325 328 328 327 326 326 326 325 326 325 328 330 331 331 331 331 333 334 336
318 318 320 321 323 324 325 326 331 333 333 333 335 334 334 333 331 329 330 331 331 330 332 329 326 327 327 326 324 323 323 322 321 322 324 324 323 324 326 327 326 326 329 332
Wind_Speed
4 3 1 4 3 7 4 3 3 6 11 10 8 8 8 7 6 6 8 9 8 7 7 9 9 6 3 6 9 12 13 13 14 13 15 15 16 14 11 9 7 8 12 13
1 7 1 2 4 2 2 3 2 11 10 6 7 8 8 7 7 6 7 7 7 8 10 11 12 12 10 9 6 3 8 9 9 10 13 14 10 7 7 8 4 3 3 6
1 8 3 4 5 4 1 2 1 4 7 13 11 10 6 6 8 9 7 7 7 6 7 8 9 11 11 9 9 5 2 3 5 8 8 11 10 6 4 9 7 4 8 12
1 4 3 4 3 5 1 3 4 8 13 11 13 10 8 4 7 7 8 7 6 7 6 4 4 7 8 9 6 3 5 5 4 4 7 7 5 5 10 10 5 5 13 15
1 2 5 2 3 2 3 4 4 9 12 13 12 11 7 6 5 3 6 7 7 7 6 5 5 5 6 6 4 2 4 5 5 6 8 8 6 5 6 3 3 6 9 14
2 2 4 2 2 4 2 1 6 8 14 15 12 6 5 9 7 6 4 3 3 3 3 3 3 3 3 5 4 3 3 4 6 7 8 9 6 5 6 6 6 5 7 7
3 3 3 2 5 3 4 2 3 9 13 14 6 3 8 10 8 8 6 4 1 1 3 3 3 3 4 6 6 2 1 1 2 3 5 5 6 4 5 6 7 9 12 12
3 2 4 2 3 3 3 2 3 7 11 11 6 7 11 11 9 8 7 5 2 2 4 5 4 2 3 5 5 5 3 4 5 4 3 4 6 6 7 9 8 9 10 10
3 1 2 3 4 5 1 2 3 8 8 10 8 9 9 8 6 4 1 4 1 2 2 2 1 1 2 4 4 5 7 7 7 8 10 10 11 10 9 7 8 10 11 11
3 3 3 3 2 1 2 6 6 6 9 10 7 7 6 4 3 3 0 3 4 3 3 2 1 2 4 4 5 6 6 5 5 5 7 9 8 8 8 8 7 6 8 12
2 3 4 5 5 3 4 4 6 5 5 7 6 7 6 6 4 3 3 3 3 3 3 1 1 4 6 6 6 7 5 4 4 5 5 7 8 7 7 7 8 7 5 6
3 5 1 2 2 4 5 7 6 6 4 4 6 6 6 6 7 6 5 2 1 1 2 2 3 4 5 7 7 6 4 4 4 5 7 5 6 4 6 3 3 7 8 7
1 4 3 2 4 6 9 7 6 5 4 5 5 7 10 11 9 8 6 5 2 3 6 5 4 4 2 4 6 5 5 3 3 4 3 5 7 7 5 5 4 5 5 6
3 1 3 2 4 6 9 9 8 6 4 6 9 10 11 11 9 8 6 4 2 2 3 2 1 1 2 4 4 4 5 7 4 3 4 5 4 3 4 4 5 2 3 5
9 9 11 9 7 7 11 11 9 8 7 7 9 10 12 12 10 7 6 5 3 1 2 2 3 3 4 4 4 4 4 4 4 4 5 8 5 4 5 6 5 5 5 4
8 7 7 11 10 6 10 11 12 10 9 11 12 13 13 10 8 7 7 6 5 5 5 3 2 3 3 5 4 2 3 5 6 4 6 5 3 3 5 5 4 2 1 5
5 3 1 4 8 9 13 12 13 13 14 14 17 15 13 11 9 8 8 6 5 5 6 5 3 3 4 4 1 2 3 3 5 4 2 2 3 3 3 4 5 6 5 3
8 10 11 9 5 4 7 12 13 13 15 21 17 16 16 16 15 13 9 6 5 5 6 6 4 2 1 2 1 2 3 3 3 2 1 2 3 4 5 4 2 4 5 6
7 7 7 9 11 9 9 10 16 18 17 16 16 20 22 18 14 12 10 9 8 8 8 7 5 2 1 2 3 3 3 3 2 2 2 2 2 3 3 2 3 3 3 5
8 9 9 10 8 10 12 12 12 13 15 17 18 15 17 17 15 14 12 12 11 9 9 9 7 4 1 2 4 3 4 3 2 3 1 2 2 4 5 6 3 2 3 4
9 10 10 11 12 10 9 10 12 13 16 18 21 20 22 19 16 15 12 11 11 14 11 12 9 5 2 1 3 4 3 1 1 0 1 1 3 4 3 5 6 6 5 1
11 10 10 11 11 11 9 7 11 13 13 17 21 20 19 18 17 16 15 13 9 16 13 12 10 7 3 3 3 2 1 3 3 1 1 2 2 3 2 3 5 5 6 5
10 11 12 13 14 16 17 11 10 14 16 19 22 23 24 24 22 18 14 17 14 16 13 12 11 8 5 4 3 3 3 3 4 4 3 3 2 2 3 2 3 5 5 5
10 11 11 12 13 14 12 14 12 15 18 19 23 28 26 20 17 19 14 12 21 19 17 13 12 9 8 7 6 6 6 6 5 5 5 6 5 5 4 4 4 3 4 5
12 15 15 15 14 12 18 17 14 14 16 17 19 22 26 22 20 18 18 15 22 23 18 17 14 12 10 9 8 8 7 7 9 10 9 8 8 7 6 7 7 6 5 4
12 12 13 13 13 15 15 17 14 13 14 17 18 20 22 21 19 15 20 19 19 23 19 17 17 14 11 11 9 8 7 7 7 8 10 11 10 8 8 7 8 8 8 8
11 11 12 13 11 12 14 16 16 15 13 17 20 21 24 23 21 20 18 19 19 21 20 18 15 15 10 9 9 9 9 10 12 11 10 11 11 11 11 11 12 12 11 10
Wind_Direction
75 355 229 296 289 220 248 295 244 125 145 153 119 110 90 78 71 50 34 26 28 31 14 0 360 356 306 254 247 239 238 234 233 230 223 220 213 212 216 228 236 265 270 265
84 8 49 127 30 104 209 202 108 138 102 118 114 109 107 104 105 89 74 58 30 16 20 19 17 23 27 31 21 323 254 243 225 210 206 199 185 160 178 181 157 239 282 271
236 344 317 198 352 323 149 187 355 148 128 156 140 127 121 121 110 107 92 84 83 70 53 47 54 45 35 29 26 32 87 102 137 165 173 165 153 189 287 290 306 299 253 251
337 319 254 63 316 261 343 101 126 104 147 152 134 121 126 118 103 107 112 105 97 93 85 63 36 35 38 44 39 107 124 130 135 185 223 234 246 218 210 229 267 314 265 261
267 259 318 186 39 358 9 119 130 133 144 135 129 125 121 136 139 136 113 112 99 95 86 75 53 53 68 61 56 100 200 229 241 246 246 233 224 224 247 269 302 271 276 276
150 223 230 51 6 325 261 180 156 158 154 152 153 160 155 170 175 194 166 121 106 105 94 68 41 20 26 34 27 350 316 298 283 285 278 278 276 292 303 304 296 266 271 301
160 225 266 256 300 302 203 57 158 166 161 159 162 68 141 161 182 185 176 191 203 326 347 336 333 353 355 357 33 37 38 278 325 313 289 281 292 304 313 306 307 314 310 299
141 204 237 27 273 247 30 75 168 170 162 157 121 136 154 165 171 166 169 166 190 267 297 305 312 325 329 342 359 33 21 344 328 324 328 325 321 317 316 312 308 298 292 295
231 97 331 287 283 314 261 123 138 159 165 164 139 155 165 166 167 176 147 88 130 256 263 286 282 225 295 316 317 325 331 331 336 341 340 340 336 329 322 312 304 306 304 301
202 169 254 317 166 164 117 113 127 143 165 176 166 159 164 171 191 230 276 86 107 88 62 51 143 213 244 273 286 293 312 336 340 342 336 339 333 319 319 319 311 305 315 320
235 241 255 235 221 184 159 153 131 131 154 182 180 182 187 184 187 190 162 122 97 92 90 49 320 261 250 257 265 279 302 321 332 334 337 342 346 329 320 303 285 288 296 314
211 193 182 218 188 202 201 190 174 165 161 183 213 204 176 173 170 156 157 159 174 15 312 283 266 255 248 237 240 236 254 272 309 317 331 352 357 353 342 285 287 281 284 288
267 179 210 292 277 230 217 196 190 207 223 216 201 169 155 145 150 151 153 168 143 20 337 301 259 247 245 237 242 245 253 278 286 305 347 4 0 9 338 326 9 2 353 333
245 212 240 215 320 252 217 190 182 207 194 185 167 153 154 151 157 175 170 156 132 50 6 344 259 274 274 267 264 265 264 277 280 304 359 0 351 323 312 310 300 274 328 352
239 243 261 284 286 261 209 180 182 187 170 162 172 171 168 169 178 181 168 169 159 195 274 302 327 323 315 307 292 274 265 258 282 299 331 339 321 296 281 276 267 289 268 237
317 291 257 241 244 231 205 199 195 190 187 184 184 189 188 185 182 176 182 193 206 237 241 248 286 322 332 337 328 298 280 283 296 306 315 320 309 262 282 271 249 235 220 258
290 258 251 238 217 211 208 207 203 193 194 194 203 191 183 184 185 194 196 205 226 245 235 237 268 307 316 346 336 304 317 316 314 313 316 311 306 294 285 273 248 227 220 205
278 276 274 274 277 249 235 224 216 212 205 208 200 186 184 190 199 203 199 204 207 216 223 225 254 261 322 344 334 295 307 317 330 343 341 312 311 313 296 263 234 219 216 232
326 314 307 270 261 253 250 240 228 217 218 208 191 193 196 197 199 198 194 199 207 213 219 213 201 188 105 32 18 345 321 319 326 341 341 319 330 2 11 318 267 258 246 217
354 355 348 333 300 254 247 240 224 226 219 206 204 194 188 192 192 195 199 211 219 217 202 190 188 183 139 15 354 334 315 308 338 353 33 12 7 10 17 33 20 296 237 209
344 345 347 340 327 307 265 249 224 220 221 207 192 195 194 191 191 193 199 220 231 216 203 203 194 197 230 308 329 325 310 221 321 338 352 336 359 8 11 10 12 16 27 331
340 335 333 329 324 323 322 284 243 242 212 210 210 202 188 186 191 203 213 224 235 210 204 201 202 204 223 287 299 303 277 258 272 280 323 352 5 5 353 351 359 2 6 13
332 339 330 326 331 328 315 291 254 231 220 213 200 194 193 197 196 196 215 224 221 207 201 201 204 215 232 264 277 275 270 268 251 249 261 259 275 319 335 341 342 352 2 6
334 332 328 325 329 329 326 329 289 249 232 221 215 201 193 192 202 213 219 215 208 211 209 211 214 220 224 232 248 266 270 265 265 265 266 265 259 259 267 275 283 289 325 351
337 331 335 340 334 329 328 324 295 257 235 226 221 209 201 204 206 211 209 210 209 211 213 215 213 211 220 229 245 258 268 274 276 273 266 262 259 258 265 274 277 279 270 275
329 326 320 321 314 313 315 324 294 267 237 225 219 216 208 205 205 206 208 208 212 211 211 206 208 217 233 239 237 242 261 276 288 294 285 272 267 261 263 270 277 276 261 249
310 315 310 310 317 319 313 315 309 283 252 239 230 216 208 200 204 204 204 210 214 210 199 200 211 230 226 231 245 259 272 279 283 278 274 275 276 275 272 272 278 277 270 256